Home > Weather > Eisenhüttenstadt > Past weeks

Flag for Germany Weather for the Past 2 Weeks in Eisenhüttenstadt, Brandenburg, Germany

Now
52 °F

Passing clouds.


Feels Like: 49 °F
Forecast: 38 / 48 °F
Wind: 7 mph from South

Location: Zielona Gora Airport

Current Time: Feb 6, 2016 at 3:28:24 PM

Latest Report: Feb 6, 2016 at 3:00 PM


Visibility: N/A

Pressure: 29.98 "Hg

Humidity: 67%

Dew point: 41 °F

Location of EisenhüttenstadtLocation

Historic Weather in Eisenhüttenstadt — Graph

°F

Eisenhüttenstadt Temperature Yesterday

Maximum temperature yesterday: 41 °F (at 1:30 PM)
Minimum temperature yesterday: 36 °F (at 6:00 AM)
Average temperature yesterday: 38 °F

High & Low Weather Summary for the Past Weeks

 TemperatureHumidityPressure
High55 °F (Feb 2, 11:30 AM)100% (Jan 23, 1:30 PM)30.51 "Hg (Jan 23, 1:30 PM)
Low7 °F (Jan 23, 5:30 AM)50% (Jan 28, 3:00 PM)29.59 "Hg (Jan 30, 9:00 PM)
Average41 °F83%30.06 "Hg
* Reported Jan 22 2:00 PM — Feb 6 2:00 PM, Eisenhüttenstadt, Weather by CustomWeather, © 2016

Note: Actual official high and low records may vary slightly from our data, if they occured in-between our weather recording intervals... More about our weather records

Advertising

Eisenhüttenstadt Weather History for the Previous 24 Hours

 ConditionsComfort  
Time TempWeatherWind HumidityBarometerVisibility
2:00 PM
Sat, Feb 6
52 °FSunny.9 mph67%30.01 "Hg10 mi
1:30 PM52 °FPassing clouds.10 mph67%30.01 "HgN/A
1:00 PM50 °FPassing clouds.12 mph71%30.04 "HgN/A
12:30 PM50 °FPassing clouds.10 mph71%30.04 "HgN/A
12:00 PM48 °FPassing clouds.14 mph76%30.07 "HgN/A
11:30 AM48 °FPassing clouds.10 mph82%30.07 "HgN/A
11:00 AM46 °FPassing clouds.9 mph82%30.07 "HgN/A
10:30 AM46 °FPassing clouds.10 mph82%30.09 "HgN/A
10:00 AM45 °FPassing clouds.12 mph87%30.09 "HgN/A
9:30 AM43 °FSunny.9 mph93%30.09 "Hg10 mi
9:00 AM43 °FSunny.9 mph93%30.12 "Hg10 mi
8:30 AM43 °FScattered clouds.10 mph100%30.12 "HgN/A
8:00 AM43 °FScattered clouds.8 mph100%30.12 "HgN/A
7:30 AM43 °FScattered clouds.8 mph100%30.12 "Hg6 mi
7:00 AM43 °FPassing clouds.9 mph100%30.12 "Hg5 mi
6:30 AM43 °FClear.9 mph100%30.12 "Hg5 mi
6:00 AM43 °FLight rain. Passing clouds.6 mph100%30.12 "Hg4 mi
10:00 PM
Fri, Feb 5
39 °FLight rain. Overcast.8 mph87%30.15 "HgN/A
9:30 PM37 °FOvercast.5 mph93%30.15 "HgN/A
9:00 PM37 °FLight rain. Overcast.5 mph93%30.18 "HgN/A
8:30 PM37 °FLight rain. Overcast.6 mph87%30.18 "HgN/A
8:00 PM37 °FLight rain. Mostly cloudy.6 mph87%30.18 "HgN/A
7:30 PM37 °FLight rain. Mostly cloudy.6 mph81%30.18 "HgN/A
7:00 PM39 °FPassing clouds.7 mph75%30.18 "HgN/A
6:30 PM37 °FClear.7 mph81%30.18 "Hg10 mi
6:00 PM37 °FClear.6 mph81%30.18 "Hg10 mi
5:30 PM39 °FPassing clouds.7 mph75%30.18 "HgN/A
5:00 PM39 °FPassing clouds.6 mph75%30.21 "HgN/A
4:30 PM39 °FSunny.6 mph75%30.21 "Hg10 mi
4:00 PM41 °FSunny.7 mph76%30.21 "Hg10 mi
3:30 PM41 °FSunny.9 mph76%30.21 "Hg10 mi
3:00 PM41 °FScattered clouds.12 mph76%30.21 "HgN/A
Weather by CustomWeather, © 2016

See weather overviewHow to use our weather pages